Precipitable_Water
0.31 0.30 0.31 0.32 0.33 0.35 0.36 0.37 0.39 0.42 0.45 0.47 0.47 0.47 0.49 0.52 0.54 0.54 0.54 0.53 0.52 0.52 0.52 0.51 0.51 0.51 0.50 0.50 0.47 0.43 0.41 0.33 0.31 0.27 0.22 0.25 0.30 0.32 0.32 0.33 0.34 0.35 0.35 0.30 0.25 0.21 0.17 0.18 0.19 0.23 0.20 0.17 0.18 0.17 0.20 0.21 0.21 0.17 0.12 0.10 0.08 0.09 0.09 0.12 0.12 0.15 0.20 0.17 0.20 0.23 0.25 0.23 0.18 0.22 0.24 0.28 0.24 0.24 0.23 0.23 0.27 0.30 0.28 0.29 0.30 0.33 0.34 0.35
0.31 0.31 0.33 0.34 0.35 0.35 0.36 0.38 0.40 0.41 0.44 0.47 0.47 0.47 0.48 0.50 0.52 0.54 0.54 0.53 0.53 0.53 0.52 0.52 0.52 0.48 0.47 0.48 0.47 0.42 0.38 0.31 0.28 0.24 0.23 0.30 0.31 0.31 0.31 0.30 0.31 0.30 0.31 0.20 0.17 0.16 0.13 0.12 0.15 0.19 0.17 0.14 0.20 0.16 0.22 0.18 0.22 0.16 0.15 0.14 0.10 0.12 0.13 0.16 0.17 0.18 0.17 0.16 0.19 0.21 0.23 0.22 0.19 0.22 0.23 0.18 0.17 0.19 0.18 0.20 0.23 0.23 0.25 0.29 0.31 0.31 0.33 0.34
0.31 0.33 0.34 0.35 0.35 0.37 0.39 0.39 0.41 0.42 0.43 0.44 0.45 0.46 0.47 0.48 0.50 0.51 0.52 0.53 0.54 0.55 0.54 0.53 0.50 0.48 0.48 0.49 0.43 0.41 0.35 0.30 0.27 0.18 0.22 0.29 0.29 0.29 0.29 0.29 0.29 0.29 0.24 0.18 0.19 0.19 0.16 0.15 0.16 0.16 0.15 0.12 0.16 0.14 0.18 0.18 0.20 0.21 0.17 0.13 0.13 0.17 0.17 0.18 0.19 0.18 0.20 0.19 0.18 0.19 0.21 0.21 0.22 0.22 0.25 0.17 0.15 0.17 0.15 0.15 0.18 0.19 0.18 0.23 0.28 0.29 0.31 0.31
0.33 0.34 0.35 0.36 0.38 0.39 0.40 0.42 0.42 0.41 0.40 0.41 0.42 0.43 0.46 0.49 0.50 0.51 0.50 0.50 0.50 0.51 0.51 0.49 0.47 0.46 0.44 0.42 0.40 0.41 0.35 0.26 0.19 0.21 0.25 0.28 0.28 0.28 0.28 0.28 0.28 0.27 0.26 0.23 0.22 0.19 0.21 0.19 0.17 0.14 0.12 0.11 0.13 0.17 0.14 0.20 0.17 0.20 0.17 0.14 0.15 0.19 0.16 0.18 0.20 0.21 0.22 0.22 0.19 0.18 0.21 0.19 0.22 0.23 0.21 0.18 0.15 0.14 0.15 0.18 0.17 0.16 0.18 0.20 0.25 0.28 0.29 0.29
0.36 0.35 0.37 0.38 0.40 0.41 0.42 0.43 0.42 0.40 0.40 0.41 0.42 0.44 0.47 0.49 0.49 0.49 0.49 0.48 0.48 0.49 0.48 0.47 0.45 0.41 0.39 0.38 0.38 0.40 0.25 0.14 0.16 0.25 0.26 0.26 0.28 0.27 0.27 0.27 0.28 0.27 0.24 0.23 0.23 0.21 0.18 0.15 0.14 0.14 0.12 0.09 0.13 0.16 0.18 0.21 0.23 0.21 0.17 0.19 0.18 0.19 0.15 0.18 0.21 0.23 0.21 0.21 0.18 0.17 0.15 0.16 0.22 0.22 0.19 0.18 0.13 0.11 0.13 0.16 0.19 0.20 0.20 0.20 0.22 0.25 0.27 0.27
0.36 0.37 0.38 0.40 0.42 0.43 0.43 0.42 0.42 0.42 0.41 0.41 0.43 0.45 0.47 0.48 0.48 0.47 0.46 0.46 0.46 0.46 0.45 0.44 0.42 0.39 0.40 0.39 0.42 0.34 0.23 0.07 0.17 0.21 0.28 0.25 0.26 0.26 0.25 0.27 0.28 0.27 0.25 0.20 0.17 0.17 0.14 0.13 0.12 0.10 0.11 0.12 0.13 0.13 0.18 0.23 0.24 0.16 0.19 0.20 0.20 0.20 0.17 0.21 0.22 0.22 0.20 0.17 0.16 0.15 0.17 0.20 0.18 0.17 0.19 0.19 0.15 0.15 0.18 0.20 0.21 0.22 0.22 0.23 0.24 0.25 0.25 0.25
0.37 0.37 0.39 0.41 0.42 0.43 0.42 0.41 0.42 0.42 0.41 0.43 0.44 0.44 0.45 0.45 0.45 0.45 0.44 0.44 0.43 0.44 0.43 0.42 0.40 0.40 0.40 0.41 0.35 0.21 0.13 0.14 0.20 0.24 0.27 0.27 0.25 0.26 0.25 0.27 0.28 0.25 0.23 0.18 0.17 0.14 0.14 0.13 0.13 0.13 0.13 0.14 0.16 0.17 0.22 0.23 0.27 0.21 0.17 0.19 0.19 0.21 0.20 0.22 0.20 0.20 0.19 0.17 0.15 0.17 0.19 0.16 0.17 0.13 0.19 0.16 0.17 0.19 0.21 0.23 0.23 0.24 0.25 0.25 0.24 0.25 0.25 0.25
0.38 0.40 0.40 0.41 0.41 0.40 0.40 0.39 0.41 0.42 0.43 0.44 0.44 0.44 0.43 0.44 0.43 0.43 0.43 0.41 0.41 0.40 0.39 0.39 0.39 0.38 0.36 0.32 0.24 0.19 0.15 0.11 0.20 0.26 0.26 0.26 0.26 0.25 0.26 0.27 0.24 0.23 0.20 0.19 0.18 0.16 0.16 0.14 0.15 0.19 0.18 0.17 0.20 0.20 0.24 0.20 0.21 0.16 0.15 0.20 0.20 0.21 0.20 0.19 0.18 0.18 0.18 0.17 0.19 0.18 0.15 0.15 0.17 0.16 0.18 0.14 0.15 0.18 0.20 0.22 0.23 0.25 0.25 0.25 0.25 0.25 0.26 0.27
0.40 0.41 0.41 0.39 0.39 0.39 0.39 0.39 0.41 0.42 0.43 0.44 0.43 0.43 0.42 0.42 0.42 0.40 0.40 0.39 0.39 0.37 0.36 0.37 0.37 0.40 0.38 0.29 0.23 0.19 0.11 0.20 0.23 0.26 0.27 0.26 0.26 0.26 0.25 0.21 0.25 0.22 0.22 0.23 0.25 0.24 0.21 0.20 0.23 0.24 0.17 0.17 0.22 0.18 0.20 0.17 0.13 0.21 0.19 0.20 0.19 0.17 0.17 0.18 0.18 0.19 0.19 0.18 0.20 0.17 0.15 0.16 0.18 0.19 0.14 0.13 0.15 0.17 0.19 0.19 0.20 0.22 0.22 0.22 0.24 0.25 0.27 0.26
0.42 0.41 0.40 0.39 0.39 0.38 0.39 0.41 0.42 0.42 0.43 0.43 0.42 0.42 0.41 0.40 0.40 0.39 0.38 0.37 0.36 0.34 0.35 0.38 0.39 0.38 0.32 0.25 0.23 0.10 0.16 0.27 0.26 0.27 0.27 0.27 0.27 0.26 0.25 0.26 0.27 0.27 0.26 0.28 0.28 0.26 0.23 0.23 0.22 0.24 0.22 0.18 0.22 0.18 0.23 0.19 0.16 0.22 0.18 0.17 0.16 0.17 0.18 0.20 0.18 0.18 0.20 0.19 0.21 0.16 0.13 0.15 0.19 0.18 0.10 0.14 0.17 0.18 0.18 0.18 0.19 0.20 0.20 0.21 0.22 0.24 0.25 0.26
0.42 0.40 0.39 0.39 0.38 0.40 0.41 0.42 0.42 0.43 0.43 0.43 0.42 0.41 0.41 0.40 0.39 0.38 0.35 0.34 0.34 0.36 0.38 0.38 0.38 0.39 0.22 0.22 0.12 0.10 0.25 0.25 0.27 0.27 0.28 0.30 0.29 0.28 0.29 0.33 0.35 0.31 0.29 0.28 0.26 0.27 0.25 0.24 0.25 0.24 0.20 0.16 0.20 0.18 0.19 0.20 0.22 0.18 0.18 0.20 0.20 0.20 0.21 0.21 0.20 0.18 0.20 0.17 0.19 0.17 0.14 0.17 0.18 0.17 0.12 0.13 0.15 0.18 0.17 0.17 0.18 0.19 0.19 0.19 0.20 0.22 0.24 0.26
0.41 0.40 0.39 0.40 0.40 0.41 0.42 0.42 0.43 0.43 0.43 0.43 0.43 0.42 0.41 0.40 0.39 0.37 0.35 0.34 0.36 0.39 0.38 0.38 0.39 0.36 0.28 0.19 0.15 0.17 0.30 0.29 0.32 0.32 0.33 0.34 0.34 0.36 0.38 0.37 0.35 0.32 0.29 0.24 0.25 0.27 0.27 0.26 0.26 0.20 0.13 0.24 0.13 0.18 0.19 0.21 0.20 0.20 0.21 0.16 0.18 0.18 0.13 0.17 0.13 0.15 0.19 0.16 0.20 0.21 0.14 0.11 0.12 0.09 0.11 0.14 0.16 0.18 0.17 0.16 0.16 0.18 0.19 0.20 0.20 0.21 0.23 0.25
0.41 0.41 0.41 0.41 0.41 0.42 0.42 0.43 0.45 0.45 0.44 0.44 0.43 0.42 0.40 0.39 0.39 0.38 0.37 0.35 0.38 0.38 0.39 0.41 0.42 0.35 0.29 0.17 0.22 0.32 0.36 0.38 0.37 0.38 0.38 0.40 0.39 0.38 0.37 0.35 0.33 0.32 0.29 0.25 0.24 0.27 0.29 0.27 0.24 0.18 0.22 0.19 0.17 0.12 0.18 0.23 0.21 0.23 0.22 0.18 0.13 0.10 0.08 0.13 0.15 0.16 0.16 0.17 0.20 0.19 0.07 0.06 0.08 0.10 0.13 0.16 0.18 0.18 0.17 0.16 0.17 0.19 0.20 0.21 0.21 0.22 0.23 0.26
0.43 0.43 0.43 0.42 0.43 0.43 0.44 0.46 0.46 0.46 0.45 0.44 0.43 0.42 0.41 0.39 0.38 0.37 0.36 0.34 0.37 0.39 0.41 0.45 0.44 0.36 0.25 0.21 0.31 0.37 0.41 0.42 0.41 0.38 0.36 0.37 0.33 0.30 0.32 0.30 0.31 0.30 0.30 0.26 0.27 0.30 0.29 0.32 0.30 0.25 0.27 0.21 0.15 0.24 0.16 0.20 0.21 0.13 0.15 0.16 0.10 0.08 0.06 0.12 0.15 0.17 0.15 0.20 0.20 0.21 0.10 0.09 0.09 0.10 0.14 0.19 0.20 0.19 0.17 0.19 0.20 0.20 0.21 0.21 0.22 0.22 0.23 0.24
0.45 0.44 0.44 0.44 0.45 0.45 0.46 0.47 0.47 0.46 0.45 0.43 0.42 0.41 0.41 0.39 0.38 0.36 0.37 0.36 0.37 0.40 0.43 0.49 0.48 0.36 0.24 0.26 0.38 0.40 0.41 0.39 0.31 0.31 0.33 0.30 0.28 0.25 0.25 0.27 0.27 0.28 0.29 0.29 0.27 0.29 0.30 0.31 0.29 0.21 0.18 0.26 0.20 0.15 0.11 0.14 0.14 0.14 0.08 0.06 0.10 0.09 0.08 0.11 0.17 0.18 0.15 0.19 0.22 0.19 0.11 0.11 0.12 0.13 0.15 0.19 0.20 0.21 0.19 0.20 0.20 0.21 0.21 0.21 0.21 0.22 0.22 0.23
0.46 0.46 0.46 0.46 0.45 0.46 0.47 0.47 0.47 0.45 0.44 0.42 0.41 0.40 0.40 0.40 0.39 0.39 0.40 0.42 0.45 0.46 0.49 0.41 0.40 0.35 0.26 0.22 0.28 0.39 0.32 0.24 0.23 0.28 0.29 0.29 0.26 0.22 0.26 0.26 0.28 0.29 0.30 0.29 0.32 0.31 0.30 0.29 0.23 0.23 0.21 0.19 0.13 0.11 0.11 0.09 0.10 0.14 0.12 0.09 0.08 0.10 0.09 0.09 0.12 0.19 0.21 0.19 0.19 0.17 0.11 0.13 0.12 0.15 0.17 0.19 0.20 0.20 0.19 0.19 0.19 0.20 0.20 0.20 0.20 0.20 0.21 0.22
0.46 0.46 0.47 0.46 0.45 0.48 0.49 0.46 0.45 0.43 0.41 0.41 0.41 0.40 0.42 0.43 0.44 0.45 0.46 0.47 0.46 0.50 0.45 0.31 0.36 0.35 0.19 0.26 0.34 0.22 0.20 0.23 0.28 0.26 0.26 0.28 0.29 0.29 0.29 0.27 0.25 0.27 0.30 0.31 0.32 0.30 0.26 0.23 0.25 0.24 0.23 0.16 0.17 0.14 0.08 0.07 0.08 0.10 0.14 0.10 0.12 0.09 0.10 0.07 0.11 0.17 0.19 0.20 0.15 0.19 0.15 0.13 0.15 0.17 0.18 0.18 0.18 0.18 0.18 0.17 0.18 0.20 0.20 0.20 0.19 0.19 0.19 0.20
0.46 0.46 0.46 0.45 0.47 0.47 0.46 0.45 0.43 0.43 0.42 0.42 0.41 0.40 0.40 0.43 0.45 0.43 0.43 0.47 0.52 0.50 0.39 0.39 0.34 0.27 0.17 0.24 0.16 0.18 0.24 0.23 0.24 0.25 0.26 0.29 0.32 0.33 0.30 0.26 0.27 0.26 0.27 0.27 0.29 0.25 0.24 0.18 0.22 0.13 0.14 0.15 0.15 0.12 0.08 0.07 0.09 0.10 0.11 0.10 0.09 0.11 0.10 0.08 0.08 0.13 0.18 0.19 0.14 0.15 0.15 0.13 0.15 0.16 0.16 0.17 0.19 0.18 0.17 0.18 0.18 0.18 0.17 0.18 0.18 0.18 0.18 0.19
0.46 0.46 0.44 0.45 0.47 0.47 0.47 0.46 0.46 0.47 0.46 0.45 0.44 0.47 0.48 0.46 0.44 0.41 0.38 0.36 0.30 0.22 0.17 0.17 0.18 0.11 0.10 0.17 0.23 0.24 0.24 0.25 0.27 0.25 0.22 0.27 0.31 0.31 0.31 0.31 0.27 0.21 0.16 0.17 0.21 0.26 0.24 0.16 0.15 0.11 0.09 0.11 0.12 0.14 0.12 0.13 0.14 0.12 0.13 0.11 0.11 0.08 0.08 0.08 0.11 0.18 0.18 0.13 0.11 0.12 0.11 0.12 0.14 0.15 0.15 0.15 0.17 0.17 0.17 0.18 0.17 0.17 0.18 0.18 0.18 0.19 0.20 0.20
0.46 0.45 0.45 0.46 0.47 0.48 0.46 0.46 0.48 0.49 0.52 0.44 0.47 0.39 0.38 0.28 0.23 0.22 0.26 0.26 0.21 0.19 0.19 0.20 0.22 0.20 0.22 0.21 0.21 0.25 0.29 0.28 0.21 0.23 0.24 0.27 0.27 0.26 0.25 0.27 0.22 0.21 0.16 0.14 0.20 0.25 0.25 0.10 0.09 0.09 0.11 0.13 0.15 0.16 0.16 0.17 0.16 0.15 0.14 0.12 0.09 0.09 0.09 0.10 0.12 0.17 0.19 0.13 0.10 0.12 0.13 0.14 0.14 0.14 0.15 0.15 0.15 0.16 0.16 0.15 0.16 0.17 0.17 0.18 0.18 0.19 0.20 0.21
0.47 0.46 0.45 0.47 0.48 0.48 0.48 0.50 0.51 0.54 0.52 0.47 0.40 0.33 0.23 0.24 0.16 0.13 0.18 0.20 0.24 0.25 0.22 0.22 0.22 0.20 0.19 0.23 0.26 0.26 0.18 0.18 0.21 0.21 0.24 0.29 0.25 0.23 0.16 0.20 0.17 0.13 0.16 0.19 0.18 0.25 0.19 0.09 0.09 0.12 0.14 0.15 0.15 0.16 0.16 0.15 0.16 0.12 0.10 0.09 0.07 0.09 0.06 0.09 0.11 0.14 0.17 0.14 0.10 0.13 0.13 0.13 0.12 0.13 0.16 0.16 0.13 0.12 0.14 0.16 0.16 0.17 0.18 0.19 0.18 0.19 0.20 0.21
0.46 0.46 0.47 0.48 0.50 0.50 0.48 0.46 0.49 0.52 0.47 0.38 0.30 0.24 0.27 0.29 0.35 0.35 0.30 0.15 0.21 0.25 0.23 0.23 0.25 0.22 0.26 0.27 0.29 0.30 0.22 0.14 0.14 0.17 0.24 0.28 0.20 0.16 0.16 0.17 0.14 0.12 0.18 0.16 0.15 0.13 0.09 0.09 0.11 0.13 0.16 0.17 0.16 0.15 0.15 0.12 0.10 0.10 0.08 0.08 0.07 0.07 0.09 0.10 0.11 0.14 0.15 0.13 0.08 0.12 0.10 0.10 0.11 0.10 0.16 0.13 0.12 0.14 0.17 0.18 0.19 0.19 0.18 0.19 0.19 0.19 0.19 0.20
0.45 0.45 0.48 0.49 0.48 0.45 0.42 0.43 0.43 0.41 0.35 0.28 0.26 0.27 0.27 0.37 0.42 0.43 0.39 0.23 0.20 0.27 0.23 0.22 0.20 0.21 0.23 0.28 0.29 0.30 0.16 0.14 0.14 0.16 0.18 0.22 0.18 0.17 0.18 0.13 0.12 0.13 0.14 0.13 0.08 0.08 0.07 0.10 0.14 0.15 0.16 0.14 0.12 0.12 0.10 0.09 0.09 0.08 0.08 0.07 0.06 0.09 0.08 0.05 0.08 0.12 0.12 0.12 0.10 0.12 0.10 0.08 0.09 0.10 0.10 0.14 0.12 0.14 0.18 0.19 0.19 0.19 0.18 0.18 0.18 0.18 0.18 0.18
0.42 0.42 0.44 0.45 0.43 0.40 0.40 0.42 0.43 0.33 0.31 0.31 0.28 0.29 0.39 0.43 0.44 0.41 0.28 0.18 0.17 0.21 0.25 0.23 0.22 0.20 0.21 0.23 0.30 0.26 0.18 0.18 0.18 0.14 0.21 0.18 0.14 0.19 0.16 0.15 0.12 0.10 0.10 0.15 0.12 0.10 0.10 0.14 0.19 0.16 0.15 0.13 0.09 0.10 0.09 0.08 0.06 0.08 0.08 0.07 0.07 0.07 0.08 0.10 0.08 0.11 0.13 0.13 0.14 0.12 0.07 0.04 0.07 0.07 0.08 0.11 0.13 0.13 0.16 0.17 0.18 0.18 0.18 0.18 0.18 0.19 0.20 0.20
0.39 0.40 0.42 0.43 0.41 0.40 0.38 0.42 0.32 0.29 0.34 0.31 0.30 0.41 0.43 0.43 0.44 0.43 0.29 0.19 0.16 0.16 0.29 0.26 0.25 0.20 0.23 0.31 0.34 0.25 0.23 0.23 0.19 0.20 0.20 0.17 0.14 0.15 0.14 0.19 0.14 0.07 0.11 0.14 0.14 0.10 0.12 0.18 0.20 0.13 0.12 0.10 0.08 0.07 0.09 0.09 0.06 0.07 0.09 0.08 0.08 0.10 0.09 0.10 0.12 0.10 0.05 0.05 0.12 0.14 0.05 0.03 0.05 0.06 0.09 0.10 0.10 0.11 0.14 0.15 0.16 0.16 0.16 0.17 0.17 0.17 0.19 0.19
0.38 0.40 0.42 0.42 0.41 0.38 0.41 0.30 0.31 0.40 0.30 0.26 0.32 0.39 0.43 0.43 0.43 0.43 0.25 0.13 0.09 0.13 0.18 0.12 0.26 0.15 0.30 0.19 0.24 0.27 0.29 0.15 0.21 0.20 0.22 0.18 0.24 0.16 0.17 0.11 0.13 0.07 0.10 0.12 0.11 0.11 0.13 0.18 0.16 0.11 0.09 0.08 0.08 0.08 0.11 0.11 0.07 0.05 0.06 0.11 0.10 0.10 0.10 0.09 0.09 0.08 0.03 0.04 0.08 0.18 0.05 0.03 0.04 0.04 0.06 0.09 0.10 0.10 0.14 0.14 0.14 0.14 0.15 0.15 0.16 0.16 0.17 0.17
0.40 0.41 0.43 0.42 0.41 0.40 0.31 0.26 0.38 0.38 0.29 0.30 0.43 0.43 0.43 0.47 0.50 0.42 0.31 0.13 0.08 0.13 0.13 0.16 0.19 0.16 0.27 0.20 0.20 0.26 0.07 0.11 0.22 0.18 0.17 0.19 0.15 0.20 0.08 0.08 0.11 0.12 0.15 0.15 0.08 0.08 0.15 0.13 0.12 0.11 0.09 0.07 0.07 0.06 0.10 0.11 0.07 0.05 0.09 0.11 0.11 0.10 0.08 0.08 0.10 0.08 0.06 0.12 0.12 0.14 0.11 0.05 0.03 0.04 0.06 0.08 0.09 0.10 0.12 0.12 0.12 0.14 0.15 0.15 0.15 0.16 0.16 0.17
0.41 0.43 0.42 0.42 0.41 0.40 0.34 0.41 0.34 0.30 0.30 0.38 0.42 0.42 0.41 0.43 0.47 0.37 0.19 0.05 0.06 0.16 0.11 0.16 0.16 0.26 0.19 0.21 0.20 0.14 0.14 0.19 0.11 0.14 0.18 0.18 0.18 0.14 0.08 0.08 0.08 0.08 0.11 0.10 0.05 0.10 0.15 0.10 0.10 0.09 0.08 0.06 0.06 0.09 0.11 0.12 0.08 0.07 0.11 0.11 0.09 0.10 0.09 0.10 0.11 0.08 0.09 0.08 0.04 0.10 0.13 0.05 0.04 0.04 0.07 0.09 0.07 0.08 0.10 0.11 0.12 0.13 0.15 0.16 0.16 0.15 0.15 0.15
0.42 0.42 0.42 0.41 0.42 0.45 0.47 0.38 0.31 0.29 0.42 0.41 0.40 0.40 0.41 0.45 0.35 0.23 0.12 0.05 0.11 0.15 0.23 0.13 0.24 0.17 0.16 0.17 0.13 0.16 0.16 0.18 0.11 0.15 0.17 0.13 0.16 0.16 0.07 0.08 0.11 0.11 0.11 0.11 0.08 0.11 0.14 0.13 0.12 0.12 0.09 0.06 0.08 0.11 0.12 0.12 0.08 0.11 0.13 0.12 0.11 0.11 0.11 0.11 0.10 0.07 0.07 0.06 0.03 0.05 0.10 0.05 0.04 0.05 0.06 0.08 0.08 0.08 0.09 0.11 0.13 0.13 0.15 0.16 0.16 0.15 0.16 0.17
0.43 0.42 0.42 0.42 0.43 0.40 0.39 0.37 0.29 0.37 0.39 0.41 0.39 0.39 0.43 0.38 0.30 0.10 0.06 0.05 0.14 0.07 0.15 0.15 0.13 0.10 0.16 0.10 0.09 0.12 0.11 0.14 0.17 0.17 0.15 0.11 0.11 0.16 0.19 0.16 0.09 0.09 0.06 0.10 0.11 0.12 0.14 0.20 0.19 0.13 0.09 0.11 0.10 0.11 0.13 0.12 0.14 0.15 0.12 0.08 0.08 0.09 0.08 0.11 0.11 0.07 0.06 0.03 0.03 0.07 0.09 0.07 0.05 0.05 0.06 0.07 0.08 0.10 0.12 0.13 0.15 0.15 0.16 0.17 0.18 0.17 0.17 0.17
0.41 0.41 0.41 0.45 0.33 0.34 0.36 0.27 0.30 0.36 0.39 0.38 0.38 0.38 0.32 0.20 0.10 0.07 0.05 0.08 0.16 0.11 0.15 0.09 0.08 0.15 0.09 0.07 0.07 0.11 0.12 0.12 0.12 0.14 0.09 0.12 0.09 0.11 0.11 0.11 0.12 0.07 0.07 0.06 0.05 0.09 0.13 0.13 0.10 0.13 0.19 0.14 0.15 0.10 0.14 0.15 0.16 0.13 0.09 0.08 0.07 0.05 0.08 0.07 0.07 0.07 0.04 0.03 0.04 0.08 0.08 0.09 0.05 0.05 0.07 0.10 0.12 0.13 0.15 0.14 0.15 0.16 0.18 0.19 0.19 0.19 0.20 0.22
0.39 0.38 0.38 0.33 0.33 0.39 0.24 0.22 0.31 0.36 0.36 0.36 0.33 0.25 0.21 0.06 0.07 0.05 0.06 0.16 0.05 0.09 0.08 0.08 0.11 0.10 0.09 0.11 0.09 0.09 0.09 0.11 0.12 0.12 0.09 0.09 0.07 0.07 0.08 0.06 0.08 0.03 0.03 0.05 0.04 0.06 0.06 0.09 0.10 0.11 0.18 0.11 0.11 0.08 0.08 0.12 0.13 0.12 0.10 0.08 0.06 0.05 0.05 0.03 0.04 0.04 0.04 0.04 0.05 0.08 0.09 0.07 0.07 0.08 0.10 0.10 0.12 0.16 0.17 0.19 0.20 0.21 0.22 0.22 0.20 0.21 0.22 0.22
0.36 0.35 0.36 0.35 0.34 0.29 0.31 0.32 0.36 0.35 0.36 0.36 0.29 0.22 0.08 0.04 0.04 0.08 0.08 0.11 0.06 0.13 0.08 0.15 0.09 0.09 0.09 0.08 0.07 0.11 0.13 0.07 0.11 0.10 0.12 0.10 0.07 0.09 0.11 0.10 0.10 0.07 0.03 0.06 0.06 0.05 0.04 0.08 0.08 0.08 0.13 0.14 0.11 0.07 0.07 0.07 0.09 0.11 0.09 0.09 0.07 0.06 0.05 0.04 0.05 0.06 0.06 0.06 0.07 0.08 0.12 0.08 0.09 0.10 0.13 0.13 0.15 0.21 0.23 0.25 0.25 0.25 0.23 0.22 0.23 0.24 0.25 0.25
0.34 0.33 0.28 0.32 0.33 0.33 0.34 0.35 0.33 0.33 0.30 0.24 0.18 0.10 0.05 0.03 0.04 0.11 0.08 0.09 0.08 0.15 0.13 0.10 0.09 0.09 0.08 0.06 0.08 0.11 0.07 0.10 0.09 0.09 0.10 0.08 0.08 0.06 0.07 0.10 0.11 0.08 0.08 0.08 0.05 0.06 0.03 0.03 0.05 0.08 0.06 0.13 0.11 0.11 0.11 0.11 0.13 0.13 0.14 0.12 0.10 0.09 0.07 0.05 0.06 0.05 0.06 0.06 0.07 0.11 0.09 0.06 0.06 0.08 0.15 0.19 0.22 0.23 0.24 0.25 0.26 0.27 0.27 0.27 0.28 0.28 0.28 0.27
0.34 0.31 0.31 0.32 0.31 0.35 0.37 0.37 0.37 0.35 0.28 0.18 0.11 0.06 0.03 0.04 0.07 0.05 0.06 0.08 0.11 0.13 0.10 0.13 0.08 0.06 0.06 0.07 0.09 0.10 0.10 0.06 0.09 0.09 0.08 0.07 0.06 0.07 0.07 0.08 0.11 0.11 0.10 0.05 0.07 0.09 0.06 0.06 0.07 0.11 0.11 0.15 0.11 0.14 0.16 0.15 0.13 0.16 0.15 0.15 0.12 0.10 0.13 0.08 0.08 0.08 0.08 0.08 0.07 0.07 0.07 0.09 0.09 0.15 0.20 0.22 0.21 0.22 0.24 0.25 0.25 0.24 0.26 0.26 0.26 0.27 0.28 0.29
0.29 0.25 0.27 0.23 0.25 0.31 0.40 0.39 0.37 0.35 0.14 0.08 0.05 0.05 0.04 0.06 0.05 0.10 0.07 0.15 0.13 0.09 0.10 0.10 0.08 0.05 0.05 0.05 0.07 0.07 0.12 0.08 0.08 0.08 0.07 0.09 0.10 0.08 0.10 0.11 0.11 0.13 0.10 0.07 0.08 0.06 0.09 0.05 0.09 0.10 0.14 0.13 0.14 0.15 0.15 0.19 0.08 0.12 0.14 0.09 0.12 0.17 0.15 0.12 0.12 0.13 0.13 0.12 0.07 0.11 0.09 0.10 0.14 0.14 0.20 0.18 0.18 0.20 0.22 0.23 0.23 0.23 0.24 0.25 0.25 0.26 0.27 0.28
0.20 0.23 0.18 0.21 0.23 0.31 0.37 0.36 0.33 0.22 0.14 0.07 0.05 0.05 0.09 0.08 0.12 0.11 0.13 0.11 0.11 0.13 0.09 0.05 0.05 0.06 0.05 0.05 0.05 0.07 0.08 0.10 0.07 0.08 0.06 0.09 0.08 0.11 0.09 0.10 0.16 0.13 0.15 0.13 0.09 0.13 0.08 0.07 0.11 0.11 0.10 0.14 0.18 0.16 0.17 0.19 0.19 0.16 0.09 0.12 0.18 0.21 0.18 0.13 0.08 0.10 0.09 0.07 0.07 0.09 0.07 0.10 0.11 0.08 0.17 0.18 0.16 0.17 0.20 0.22 0.23 0.24 0.24 0.24 0.25 0.27 0.28 0.29
0.20 0.20 0.19 0.18 0.23 0.29 0.35 0.32 0.24 0.15 0.09 0.06 0.06 0.08 0.13 0.08 0.14 0.13 0.16 0.15 0.14 0.13 0.07 0.06 0.06 0.10 0.05 0.06 0.05 0.07 0.08 0.06 0.06 0.08 0.06 0.08 0.07 0.15 0.11 0.10 0.15 0.14 0.17 0.19 0.11 0.12 0.15 0.08 0.09 0.11 0.12 0.14 0.16 0.16 0.12 0.19 0.22 0.14 0.12 0.20 0.12 0.09 0.07 0.11 0.12 0.07 0.07 0.06 0.07 0.08 0.09 0.12 0.13 0.12 0.16 0.16 0.17 0.17 0.19 0.21 0.22 0.22 0.23 0.23 0.25 0.26 0.28 0.30
0.24 0.15 0.11 0.16 0.24 0.27 0.27 0.24 0.16 0.10 0.06 0.06 0.07 0.05 0.09 0.11 0.16 0.14 0.15 0.15 0.15 0.11 0.06 0.08 0.06 0.08 0.09 0.06 0.07 0.09 0.09 0.06 0.08 0.07 0.06 0.08 0.07 0.12 0.12 0.13 0.11 0.16 0.18 0.19 0.14 0.15 0.16 0.09 0.08 0.13 0.12 0.13 0.12 0.12 0.08 0.09 0.14 0.18 0.19 0.15 0.20 0.16 0.12 0.09 0.10 0.10 0.11 0.08 0.09 0.09 0.09 0.09 0.14 0.15 0.18 0.18 0.19 0.20 0.20 0.20 0.21 0.23 0.23 0.24 0.25 0.26 0.27 0.29
0.18 0.10 0.09 0.18 0.23 0.25 0.21 0.15 0.10 0.08 0.06 0.04 0.07 0.07 0.13 0.10 0.14 0.17 0.17 0.16 0.12 0.11 0.08 0.08 0.10 0.07 0.08 0.08 0.10 0.07 0.10 0.09 0.09 0.08 0.08 0.09 0.08 0.14 0.11 0.17 0.12 0.13 0.17 0.20 0.16 0.19 0.12 0.16 0.07 0.09 0.13 0.13 0.08 0.10 0.08 0.10 0.09 0.10 0.10 0.10 0.13 0.13 0.16 0.14 0.13 0.11 0.09 0.09 0.09 0.10 0.09 0.12 0.17 0.21 0.20 0.20 0.21 0.21 0.22 0.21 0.22 0.22 0.24 0.25 0.26 0.27 0.29 0.30
0.17 0.10 0.10 0.19 0.19 0.24 0.18 0.09 0.08 0.07 0.07 0.11 0.12 0.10 0.12 0.09 0.14 0.15 0.19 0.21 0.16 0.20 0.12 0.10 0.10 0.08 0.09 0.09 0.08 0.12 0.09 0.10 0.10 0.08 0.09 0.09 0.09 0.07 0.17 0.15 0.17 0.13 0.18 0.17 0.16 0.16 0.13 0.13 0.09 0.09 0.09 0.08 0.08 0.10 0.10 0.10 0.11 0.11 0.11 0.09 0.10 0.09 0.08 0.08 0.07 0.11 0.11 0.10 0.09 0.10 0.09 0.13 0.20 0.24 0.22 0.22 0.23 0.23 0.23 0.23 0.22 0.23 0.24 0.25 0.27 0.28 0.29 0.30
0.11 0.07 0.09 0.18 0.19 0.18 0.10 0.06 0.09 0.13 0.09 0.08 0.08 0.12 0.10 0.19 0.13 0.14 0.16 0.19 0.18 0.14 0.19 0.14 0.14 0.12 0.11 0.11 0.11 0.12 0.11 0.09 0.10 0.09 0.10 0.09 0.11 0.11 0.14 0.20 0.19 0.20 0.16 0.12 0.14 0.19 0.17 0.15 0.12 0.09 0.08 0.08 0.09 0.10 0.11 0.13 0.14 0.12 0.12 0.10 0.11 0.11 0.12 0.10 0.08 0.09 0.11 0.11 0.13 0.13 0.11 0.12 0.22 0.24 0.24 0.24 0.24 0.24 0.24 0.23 0.23 0.23 0.23 0.24 0.24 0.26 0.28 0.29
0.10 0.08 0.17 0.18 0.19 0.13 0.06 0.07 0.10 0.09 0.09 0.12 0.18 0.15 0.18 0.14 0.14 0.15 0.13 0.15 0.12 0.15 0.13 0.12 0.12 0.11 0.13 0.12 0.12 0.12 0.13 0.09 0.10 0.09 0.10 0.11 0.11 0.13 0.18 0.19 0.22 0.20 0.20 0.18 0.17 0.21 0.20 0.13 0.10 0.09 0.09 0.09 0.11 0.11 0.12 0.13 0.13 0.12 0.13 0.14 0.13 0.11 0.12 0.11 0.12 0.13 0.13 0.12 0.12 0.12 0.11 0.13 0.22 0.25 0.25 0.24 0.25 0.24 0.25 0.24 0.23 0.23 0.23 0.23 0.23 0.24 0.25 0.26
0.09 0.09 0.10 0.16 0.17 0.12 0.06 0.05 0.06 0.08 0.10 0.12 0.12 0.12 0.17 0.13 0.13 0.12 0.12 0.14 0.13 0.13 0.12 0.12 0.14 0.16 0.12 0.16 0.14 0.10 0.14 0.07 0.11 0.11 0.09 0.12 0.11 0.18 0.19 0.20 0.23 0.18 0.18 0.17 0.14 0.21 0.12 0.12 0.11 0.08 0.07 0.06 0.06 0.07 0.07 0.11 0.12 0.10 0.09 0.11 0.14 0.15 0.15 0.16 0.16 0.17 0.13 0.12 0.13 0.13 0.09 0.12 0.19 0.23 0.23 0.23 0.24 0.23 0.24 0.24 0.24 0.24 0.24 0.23 0.22 0.23 0.25 0.25
0.09 0.10 0.10 0.11 0.14 0.10 0.07 0.09 0.08 0.08 0.09 0.09 0.09 0.09 0.10 0.11 0.17 0.16 0.15 0.14 0.18 0.16 0.14 0.11 0.14 0.15 0.13 0.15 0.12 0.14 0.14 0.11 0.09 0.13 0.12 0.12 0.12 0.19 0.19 0.20 0.23 0.20 0.24 0.24 0.22 0.26 0.14 0.12 0.11 0.07 0.06 0.05 0.05 0.05 0.06 0.07 0.08 0.10 0.11 0.10 0.12 0.14 0.15 0.14 0.11 0.12 0.11 0.13 0.15 0.14 0.12 0.16 0.20 0.20 0.20 0.21 0.22 0.22 0.23 0.24 0.24 0.24 0.23 0.22 0.21 0.21 0.22 0.23
0.07 0.05 0.08 0.08 0.12 0.13 0.15 0.17 0.12 0.09 0.09 0.09 0.09 0.11 0.12 0.10 0.15 0.20 0.18 0.14 0.17 0.17 0.16 0.14 0.15 0.16 0.12 0.12 0.10 0.10 0.10 0.14 0.11 0.10 0.12 0.11 0.12 0.15 0.20 0.21 0.22 0.22 0.23 0.24 0.24 0.23 0.14 0.15 0.12 0.10 0.08 0.07 0.07 0.08 0.10 0.12 0.12 0.10 0.10 0.12 0.13 0.15 0.16 0.16 0.15 0.12 0.11 0.15 0.15 0.16 0.16 0.16 0.17 0.18 0.19 0.19 0.20 0.20 0.21 0.21 0.20 0.21 0.21 0.20 0.20 0.19 0.20 0.21
0.12 0.07 0.08 0.07 0.12 0.12 0.12 0.14 0.13 0.14 0.10 0.14 0.09 0.12 0.09 0.11 0.13 0.14 0.20 0.11 0.15 0.15 0.16 0.13 0.12 0.10 0.10 0.11 0.09 0.09 0.10 0.10 0.12 0.12 0.11 0.12 0.13 0.15 0.20 0.21 0.23 0.23 0.24 0.22 0.25 0.21 0.15 0.11 0.10 0.11 0.11 0.10 0.10 0.11 0.12 0.13 0.12 0.12 0.13 0.14 0.15 0.15 0.16 0.15 0.13 0.12 0.18 0.15 0.11 0.16 0.17 0.16 0.16 0.18 0.19 0.20 0.21 0.21 0.20 0.20 0.19 0.20 0.20 0.19 0.18 0.19 0.19 0.19
0.09 0.14 0.18 0.19 0.09 0.09 0.10 0.11 0.14 0.12 0.14 0.14 0.11 0.14 0.10 0.09 0.10 0.09 0.13 0.15 0.16 0.15 0.10 0.13 0.12 0.14 0.14 0.12 0.12 0.08 0.09 0.09 0.10 0.09 0.12 0.13 0.14 0.17 0.17 0.22 0.20 0.24 0.23 0.21 0.25 0.18 0.14 0.10 0.10 0.10 0.09 0.12 0.12 0.12 0.13 0.13 0.13 0.15 0.16 0.16 0.16 0.17 0.17 0.15 0.15 0.17 0.17 0.14 0.13 0.16 0.18 0.16 0.18 0.19 0.20 0.21 0.21 0.20 0.20 0.19 0.19 0.20 0.20 0.18 0.18 0.18 0.18 0.18
0.14 0.15 0.16 0.20 0.11 0.13 0.13 0.13 0.13 0.11 0.11 0.12 0.12 0.12 0.10 0.09 0.09 0.12 0.11 0.11 0.12 0.11 0.12 0.07 0.09 0.12 0.13 0.15 0.13 0.09 0.11 0.08 0.08 0.12 0.13 0.14 0.15 0.16 0.14 0.15 0.22 0.22 0.21 0.19 0.20 0.21 0.15 0.10 0.11 0.11 0.09 0.10 0.11 0.11 0.12 0.12 0.13 0.15 0.16 0.17 0.18 0.17 0.17 0.17 0.17 0.18 0.18 0.17 0.18 0.18 0.18 0.17 0.18 0.19 0.20 0.21 0.22 0.21 0.20 0.19 0.18 0.17 0.16 0.16 0.17 0.18 0.18 0.17
0.10 0.11 0.12 0.17 0.16 0.14 0.14 0.13 0.12 0.11 0.10 0.13 0.09 0.11 0.11 0.10 0.09 0.12 0.14 0.12 0.08 0.10 0.14 0.09 0.09 0.12 0.13 0.14 0.13 0.10 0.11 0.13 0.12 0.11 0.15 0.17 0.16 0.18 0.15 0.15 0.14 0.17 0.19 0.16 0.17 0.19 0.12 0.09 0.12 0.10 0.09 0.08 0.09 0.09 0.10 0.12 0.13 0.13 0.16 0.17 0.17 0.17 0.16 0.16 0.17 0.19 0.19 0.18 0.18 0.17 0.16 0.16 0.19 0.22 0.20 0.20 0.19 0.19 0.17 0.15 0.14 0.14 0.15 0.15 0.16 0.17 0.17 0.17
0.15 0.16 0.14 0.11 0.10 0.12 0.13 0.12 0.10 0.10 0.09 0.11 0.10 0.12 0.12 0.12 0.11 0.14 0.12 0.17 0.12 0.10 0.12 0.10 0.12 0.11 0.14 0.13 0.12 0.12 0.14 0.15 0.16 0.17 0.20 0.20 0.15 0.18 0.15 0.14 0.19 0.14 0.15 0.15 0.17 0.17 0.16 0.11 0.13 0.11 0.08 0.07 0.08 0.09 0.09 0.11 0.13 0.13 0.14 0.15 0.15 0.15 0.14 0.16 0.16 0.19 0.17 0.16 0.17 0.17 0.15 0.15 0.18 0.19 0.17 0.16 0.15 0.14 0.12 0.12 0.12 0.13 0.14 0.15 0.16 0.16 0.17 0.17
0.18 0.20 0.20 0.14 0.10 0.12 0.10 0.12 0.12 0.10 0.08 0.13 0.13 0.12 0.11 0.11 0.15 0.17 0.11 0.15 0.17 0.16 0.15 0.14 0.14 0.13 0.11 0.10 0.10 0.12 0.16 0.19 0.20 0.23 0.24 0.24 0.24 0.22 0.22 0.20 0.20 0.17 0.15 0.14 0.17 0.14 0.15 0.13 0.11 0.11 0.08 0.07 0.08 0.10 0.10 0.11 0.10 0.08 0.11 0.14 0.16 0.17 0.17 0.18 0.19 0.20 0.19 0.20 0.16 0.14 0.14 0.18 0.17 0.15 0.14 0.14 0.14 0.12 0.12 0.12 0.13 0.14 0.15 0.16 0.16 0.17 0.17 0.18
Wind_Speed
12 12 12 11 11 10 9 9 9 8 8 7 7 7 7 7 7 7 7 7 6 6 6 7 7 7 7 6 6 6 7 7 7 8 7 8 9 9 10 10 11 11 11 10 10 10 10 10 10 10 10 10 10 11 11 10 9 9 8 9 11 10 11 10 10 11 11 12 13 12 12 13 15 15 15 15 15 17 17 18 18 18 19 19 19 19 18 16
12 12 12 11 11 10 9 9 9 8 8 7 7 7 7 7 7 7 6 6 6 6 6 6 7 7 7 6 6 7 7 7 7 7 7 8 9 9 9 10 10 10 9 9 9 9 9 10 10 10 10 10 10 10 10 10 9 8 8 9 11 10 10 10 11 11 11 13 14 14 14 14 15 15 15 16 17 17 18 19 18 19 21 21 20 19 19 18
12 11 11 10 10 9 9 9 8 8 8 8 7 7 7 7 7 7 7 7 6 6 5 5 5 6 6 6 6 7 7 6 6 7 7 8 8 9 9 9 9 9 8 8 8 8 9 9 10 9 9 9 10 9 9 9 9 8 8 9 11 10 11 11 11 12 13 14 14 15 15 15 16 16 15 16 18 18 18 18 18 20 23 22 21 20 20 20
11 11 10 10 9 9 8 8 8 8 8 8 7 7 7 7 7 7 7 7 6 6 6 5 5 5 5 5 6 6 6 5 6 6 7 8 8 9 9 8 8 8 7 7 7 7 8 8 8 8 8 9 9 8 8 8 8 8 8 9 11 10 11 12 12 13 14 14 14 15 15 16 17 17 16 17 18 19 19 20 20 21 24 24 23 22 21 21
11 10 10 9 9 8 8 7 7 7 7 7 7 6 6 6 7 7 7 7 6 6 5 5 4 4 4 5 6 6 5 5 6 6 7 8 8 8 8 8 7 7 6 6 6 6 7 7 7 7 7 8 9 8 8 8 8 8 9 10 11 10 11 13 12 13 14 14 15 15 15 16 17 17 18 18 18 20 20 21 22 22 23 23 23 23 23 22
11 10 10 9 9 8 8 7 7 7 7 6 6 6 6 6 6 7 7 7 6 6 5 5 5 5 5 6 6 5 4 4 5 6 6 8 8 8 8 7 6 6 6 6 6 6 6 6 6 6 6 7 8 7 8 8 8 9 10 10 11 11 12 13 13 14 15 15 15 15 16 17 17 18 19 19 21 23 23 22 22 23 24 24 23 24 24 24
11 11 10 10 9 8 8 7 7 7 6 6 5 5 5 6 6 7 7 7 6 6 5 5 5 6 6 5 4 3 2 3 4 5 6 7 7 8 7 6 5 5 5 5 6 5 5 5 6 5 5 6 7 7 8 9 9 9 10 11 11 12 13 14 15 15 15 16 17 17 18 18 18 20 20 21 24 25 26 24 24 25 25 24 24 24 25 26
11 11 10 10 9 8 8 7 7 6 6 5 5 5 5 5 5 6 6 6 6 5 5 5 5 5 5 4 2 2 2 2 3 4 5 6 7 7 6 5 4 4 4 4 4 4 4 5 5 5 5 6 7 7 8 9 9 8 10 11 12 13 14 16 16 16 17 17 18 18 19 19 20 20 20 23 27 27 26 26 26 27 26 26 26 26 26 27
10 10 10 9 9 8 8 7 7 6 5 5 4 4 4 4 4 4 4 5 4 4 3 3 2 2 2 1 0 1 1 2 2 4 4 5 5 6 4 4 4 4 4 4 4 4 4 4 5 5 6 6 6 7 8 8 9 9 10 12 13 14 16 16 16 17 17 17 17 18 19 20 21 21 21 24 27 26 26 26 26 27 27 28 28 28 28 29
10 10 9 8 8 7 7 7 6 5 5 4 3 3 3 2 2 2 3 3 3 2 1 1 1 1 1 2 3 2 0 1 2 2 3 4 4 5 5 5 5 4 4 4 4 4 4 4 5 6 6 6 6 7 8 7 9 10 11 13 14 15 16 15 16 17 17 18 18 18 20 21 21 20 21 25 26 25 26 27 28 27 28 29 30 30 30 31
10 10 9 8 7 7 7 7 6 5 4 3 2 2 1 2 3 4 4 5 5 5 4 4 3 3 3 4 5 3 1 2 2 2 3 4 4 5 5 6 6 5 5 4 5 4 4 4 5 5 5 6 7 8 8 8 10 11 12 13 14 15 16 15 17 19 18 18 19 19 21 20 20 20 22 27 27 27 29 30 30 29 30 30 31 31 30 31
11 10 10 9 9 8 8 8 7 6 5 4 4 4 4 5 6 7 7 7 7 6 5 5 4 4 5 5 5 3 2 3 2 3 4 4 4 4 5 6 6 5 5 5 5 5 5 5 5 5 6 7 8 8 9 10 11 11 11 13 14 15 16 16 17 18 17 18 19 20 21 18 17 20 25 28 29 29 30 31 30 30 30 30 31 31 31 31
13 12 12 11 11 11 10 10 9 8 7 7 7 8 8 8 8 8 8 8 7 7 6 6 5 5 6 5 5 4 4 4 4 5 5 4 5 4 5 6 5 5 5 5 5 5 5 5 5 5 6 7 8 9 9 10 10 12 12 12 14 16 16 17 18 18 18 18 19 21 21 20 19 22 26 28 29 29 29 30 30 30 30 30 30 30 30 30
15 14 14 13 13 13 12 12 11 11 10 10 10 10 10 10 9 9 9 9 8 7 6 6 6 6 7 6 5 5 6 5 6 6 6 5 5 5 5 6 5 6 6 6 5 5 6 6 6 6 7 8 9 10 11 11 11 13 13 13 14 16 17 19 19 19 19 19 20 20 22 23 23 25 27 25 26 27 29 30 30 30 30 29 29 29 30 30
16 15 15 15 15 14 14 14 13 13 12 11 11 11 10 10 10 10 10 9 8 8 7 7 7 7 8 7 6 6 7 7 7 7 7 6 6 5 6 6 6 6 6 5 5 6 7 7 7 7 8 10 10 11 11 12 12 14 14 15 16 16 18 21 20 19 20 21 21 21 24 26 25 27 28 25 25 27 29 31 31 30 30 29 29 29 29 29
17 17 17 16 16 16 15 14 14 13 13 12 12 11 11 11 11 11 10 10 9 9 8 8 8 9 9 7 6 7 7 7 7 7 7 7 6 5 6 6 6 6 6 6 6 6 8 8 7 8 9 11 12 11 11 12 15 15 15 17 18 18 20 21 20 20 21 23 23 22 25 27 26 28 30 29 28 27 28 30 31 31 30 29 28 28 28 28
18 18 18 18 17 16 15 15 14 14 14 14 14 14 13 13 12 12 11 11 11 11 11 10 9 9 9 7 7 7 6 6 7 8 8 7 6 6 6 7 6 7 7 6 6 7 9 9 9 10 11 12 12 12 13 15 17 17 17 17 18 19 21 22 22 22 22 23 24 24 24 27 27 28 31 31 29 28 27 28 29 30 29 28 27 27 28 28
19 19 19 18 17 17 16 15 15 15 15 15 16 15 15 14 13 13 12 11 11 10 11 10 9 10 9 8 7 6 5 6 7 8 9 8 6 6 7 7 7 8 8 7 8 9 10 11 10 11 12 13 14 14 15 16 17 18 19 19 20 21 22 23 23 23 23 24 25 24 25 26 27 28 30 31 29 29 28 27 27 28 27 27 26 26 26 26
20 19 19 18 18 17 17 17 16 15 15 14 15 15 15 15 15 15 14 13 12 11 11 10 10 10 8 7 7 6 5 6 8 8 10 9 7 7 8 8 8 9 9 8 10 10 11 12 12 13 14 15 15 14 14 16 16 18 19 19 22 23 23 23 23 24 25 26 25 24 25 26 27 28 29 31 31 29 28 27 26 26 25 25 24 24 24 25
19 19 19 19 18 18 18 18 17 16 15 15 15 15 15 15 15 15 16 16 15 14 13 11 11 10 8 7 8 8 7 7 8 10 11 10 8 8 9 10 10 10 10 9 11 11 11 12 14 14 15 16 16 15 15 16 17 18 19 20 22 23 24 24 24 24 25 26 25 24 25 26 26 28 28 30 31 28 28 28 26 24 23 24 23 23 24 24
20 19 19 18 18 19 19 18 17 17 17 17 17 17 16 15 15 14 15 15 15 14 13 11 10 9 8 7 8 8 8 9 10 12 13 12 10 9 11 11 10 11 12 11 11 11 11 13 15 15 14 16 17 17 17 18 18 19 20 21 23 23 24 25 24 24 25 25 25 24 26 27 26 28 28 29 29 27 28 27 26 24 23 24 24 24 25 25
20 19 19 19 20 20 20 19 19 19 20 19 19 18 17 15 15 14 14 14 13 13 12 11 10 9 8 8 8 9 9 10 12 14 15 13 12 11 11 11 10 11 12 12 11 12 13 14 16 16 15 17 18 18 18 18 18 19 21 22 23 24 25 25 23 24 26 24 25 26 27 27 27 27 26 27 26 26 27 26 25 24 23 24 25 25 25 25
20 21 21 21 21 21 20 20 20 20 20 20 19 18 17 16 14 13 13 13 12 12 12 11 11 10 9 8 9 10 10 10 11 15 17 15 13 12 11 11 11 11 13 13 11 12 13 14 16 17 17 18 19 20 19 19 19 20 21 22 24 24 25 26 24 26 27 25 24 27 27 25 25 26 25 24 25 25 25 25 24 24 24 24 25 25 24 24
22 22 22 21 22 21 19 19 20 20 20 19 19 18 16 15 14 13 12 12 11 11 11 11 11 11 10 9 10 10 10 10 11 15 17 16 14 13 12 12 12 13 14 13 11 12 13 14 16 17 18 18 19 20 20 20 21 21 21 21 24 25 24 25 26 27 28 25 24 26 27 24 24 26 25 24 24 25 24 24 24 25 25 25 25 24 24 23
22 21 21 21 20 19 18 18 18 17 17 17 16 15 15 14 13 12 11 12 11 10 11 11 11 12 11 11 11 9 8 11 13 15 17 17 15 13 13 13 12 15 15 13 12 13 14 15 16 17 19 19 19 20 20 21 22 23 22 21 24 26 25 25 26 27 27 25 25 25 25 25 26 25 24 24 25 25 25 24 25 26 25 24 23 23 23 23
20 20 19 19 18 16 16 15 15 14 14 13 13 12 12 12 11 10 10 11 11 10 11 11 11 12 12 13 13 9 8 12 14 16 18 17 15 13 14 14 13 15 15 13 13 14 15 16 17 17 19 20 21 21 21 21 22 24 23 22 24 25 26 26 25 25 25 25 26 23 21 25 28 26 24 24 25 25 25 25 25 26 25 23 23 23 23 23
18 18 17 16 15 14 13 13 12 11 11 10 9 8 8 8 7 7 8 9 10 10 11 12 11 13 13 14 14 11 10 13 14 17 19 18 16 14 14 14 14 15 15 14 14 14 16 18 19 19 20 22 22 23 22 21 22 24 23 22 25 26 26 25 23 23 24 25 25 22 21 24 26 26 24 24 25 25 25 25 25 25 25 24 24 24 25 25
17 16 15 14 13 12 11 10 10 9 8 7 7 7 6 6 6 6 7 8 9 9 10 11 11 13 14 13 15 14 11 13 14 16 20 19 16 14 14 14 14 15 17 14 14 16 16 18 20 20 21 22 23 23 22 21 22 23 23 24 26 25 25 23 21 22 24 24 23 22 22 23 25 26 24 23 24 25 25 26 26 25 26 25 26 27 27 27
16 15 14 13 12 10 9 9 8 7 6 6 7 7 6 7 6 7 9 8 8 10 10 11 12 14 15 14 15 16 14 14 14 16 19 20 18 15 14 15 14 15 18 16 15 17 17 18 19 19 21 22 22 23 21 20 22 24 24 25 25 23 24 22 20 23 24 22 21 22 22 22 24 27 24 22 24 26 26 25 25 26 26 26 28 29 29 29
15 14 13 12 10 9 8 8 7 5 5 6 7 7 7 7 7 8 10 8 9 10 11 12 12 13 15 14 15 16 15 15 16 16 18 19 20 18 14 15 16 15 18 18 16 17 18 18 18 19 20 21 22 23 21 20 22 25 25 26 26 25 25 23 21 23 22 22 21 21 22 22 24 26 24 23 25 26 26 26 25 26 26 28 30 31 31 31
13 12 11 10 10 9 8 7 6 6 6 6 7 7 7 8 8 9 9 7 9 11 12 12 12 13 14 13 14 16 15 16 17 17 17 17 19 19 16 16 17 16 17 18 18 19 19 18 19 20 21 22 23 24 23 23 24 25 26 27 28 27 26 24 24 23 21 22 23 22 24 23 22 25 24 24 26 26 26 26 26 25 27 30 32 33 33 33
14 13 11 10 9 9 8 7 6 6 6 7 7 8 8 9 11 10 8 8 8 10 11 11 12 13 14 13 15 16 15 16 17 17 17 17 18 19 18 19 19 19 19 19 20 20 19 18 20 22 22 23 24 25 26 26 26 26 27 28 28 27 27 25 25 23 21 24 25 24 26 24 23 25 25 26 27 26 25 25 25 27 30 33 34 35 36 35
14 13 12 11 10 9 9 8 7 7 7 7 8 8 9 11 11 10 9 9 8 9 11 11 12 13 14 14 15 16 15 16 18 17 17 18 18 19 19 19 20 20 20 20 20 21 21 20 22 23 23 24 25 26 27 27 28 28 27 28 26 25 26 26 25 24 25 28 29 27 25 25 26 25 25 26 25 24 26 26 27 30 32 34 35 36 37 37
13 12 12 11 11 10 9 8 8 8 8 9 9 9 12 12 9 9 10 9 9 10 11 12 13 14 15 15 15 16 16 16 17 18 18 18 19 19 19 20 21 20 20 20 20 21 22 23 23 23 24 27 27 25 25 27 28 27 26 26 24 23 23 24 24 24 27 31 33 29 24 24 27 27 26 26 25 25 28 29 30 31 32 33 35 36 37 38
13 13 12 11 11 10 10 9 9 9 9 10 10 11 12 10 7 9 10 9 10 11 11 12 13 14 15 15 15 16 16 16 18 18 18 18 19 19 20 20 21 21 21 21 21 21 22 23 23 24 25 26 26 25 25 26 27 26 26 26 25 24 23 24 24 25 27 30 31 29 26 26 28 28 28 28 28 29 31 32 33 34 35 35 35 36 38 37
13 13 13 12 12 12 11 10 10 9 10 10 11 12 11 8 8 9 10 10 11 11 12 13 14 15 15 16 16 17 17 16 18 18 18 18 19 20 20 20 22 23 22 22 22 22 22 24 25 25 26 25 25 26 25 25 26 26 27 26 26 25 24 25 27 27 27 28 29 29 29 31 30 29 31 31 31 32 33 34 36 37 37 37 37 38 38 38
13 13 13 14 14 13 12 12 11 11 11 11 11 11 10 9 9 9 10 11 11 11 12 14 14 14 15 15 16 18 18 18 18 19 19 19 19 20 22 21 22 23 23 23 23 23 23 26 26 25 26 27 26 27 26 25 25 26 27 27 27 27 26 25 27 28 27 28 29 30 32 32 31 32 35 35 35 35 35 36 38 39 39 39 39 39 38 38
13 13 15 15 15 14 12 12 11 11 12 13 12 11 10 10 10 9 10 12 12 13 14 14 14 14 14 15 16 17 18 19 19 20 20 20 20 20 22 22 22 23 24 23 23 24 24 26 27 25 26 29 27 27 28 27 25 25 26 28 27 27 28 27 27 27 29 29 29 32 33 30 29 33 36 37 37 38 39 39 40 41 41 41 41 41 40 39
13 13 15 15 16 16 14 12 11 12 13 13 12 11 10 11 11 10 11 12 12 14 15 14 14 15 15 15 16 17 19 19 20 20 20 21 21 21 21 22 23 24 25 23 23 25 25 25 27 27 27 29 28 28 30 29 28 27 28 29 28 26 27 28 29 28 28 29 29 31 31 28 28 33 35 37 38 39 41 41 41 42 43 42 43 43 42 42
12 12 13 14 15 15 14 14 13 14 13 12 11 11 11 11 11 11 12 13 13 14 15 14 15 16 16 16 16 17 19 19 20 20 20 21 22 22 23 22 23 25 26 24 24 26 26 24 26 29 29 29 28 28 29 30 29 29 30 31 30 29 29 31 31 29 28 29 28 29 29 27 29 32 34 37 39 40 41 42 42 43 44 44 45 44 44 45
12 12 12 14 15 12 12 15 14 13 12 12 12 12 11 11 12 13 13 14 14 14 14 14 15 16 16 17 17 17 19 19 20 20 21 22 23 23 24 23 24 26 26 26 25 26 26 25 27 30 31 30 30 29 28 27 27 27 29 31 31 32 32 32 32 32 31 31 29 29 31 30 30 33 35 38 40 41 42 43 43 45 46 47 47 47 47 47
12 12 11 14 15 13 14 15 13 12 13 13 12 12 12 12 13 14 14 15 14 14 15 15 15 16 16 17 18 18 19 20 20 21 21 22 22 23 24 24 25 25 25 26 26 26 27 26 27 30 30 30 31 32 29 28 28 29 30 31 31 32 31 30 33 35 34 34 32 31 32 31 31 33 36 39 40 42 43 44 45 46 47 49 50 50 48 47
12 11 11 13 13 13 14 14 13 14 14 12 12 13 13 13 14 14 14 15 15 15 15 16 16 17 17 17 19 19 20 20 20 22 22 22 23 23 23 24 25 25 25 26 26 26 27 27 28 31 32 31 32 32 31 30 31 33 34 34 33 34 34 33 34 35 36 37 35 32 32 33 33 35 38 41 43 43 44 45 47 48 48 49 50 50 48 46
12 13 13 14 12 12 13 13 12 13 13 12 13 14 14 14 14 14 14 14 15 15 15 16 16 17 18 18 19 20 21 21 21 22 23 23 24 24 24 25 26 25 26 27 27 27 27 27 29 31 32 34 35 35 35 35 35 36 37 37 36 37 38 37 36 36 36 37 35 33 34 35 37 40 43 46 47 47 47 47 48 48 48 49 50 50 48 47
12 13 14 16 15 14 13 12 12 12 12 13 14 14 14 13 14 14 14 14 15 15 15 16 17 17 19 19 20 21 22 22 22 23 24 24 25 25 25 26 26 26 26 26 26 27 28 28 29 28 28 31 33 35 37 39 39 38 40 41 40 39 39 39 39 37 36 37 36 34 35 39 42 44 46 48 48 48 48 49 49 48 49 50 51 50 49 48
10 11 12 14 16 16 15 13 13 13 13 13 14 13 13 13 13 14 14 15 16 16 16 17 18 18 20 21 21 21 22 22 23 24 25 25 25 26 27 27 26 26 26 26 26 27 28 29 30 28 28 29 33 36 38 39 39 41 43 44 43 42 40 39 39 38 37 38 37 35 38 43 45 47 49 49 47 47 47 48 49 50 51 53 52 51 50 49
10 11 11 11 13 15 15 15 15 14 12 12 12 12 13 13 13 14 15 15 16 17 16 18 19 20 20 21 22 22 23 24 24 24 25 25 26 27 28 27 26 26 26 26 26 27 30 32 31 30 31 32 35 39 40 40 40 41 43 43 43 42 41 39 37 38 38 38 37 37 42 45 46 47 49 48 47 46 47 49 52 53 53 54 53 54 54 52
11 10 11 11 11 12 13 14 15 15 14 13 13 12 13 14 14 14 15 16 17 18 18 19 21 21 20 21 22 23 25 25 25 25 26 27 27 29 29 27 25 27 27 27 27 28 29 32 32 33 35 36 37 39 41 40 40 39 41 42 41 40 40 40 39 41 41 38 38 41 45 45 44 46 47 47 47 47 49 52 54 54 55 55 56 56 55 54
11 11 12 12 12 12 12 12 14 15 15 14 13 13 13 14 14 14 15 17 18 20 20 20 22 23 22 21 22 23 25 26 27 27 27 28 28 28 28 27 26 27 28 27 29 29 30 33 34 35 38 39 38 39 39 39 40 40 40 40 39 39 41 42 43 44 42 40 39 42 44 43 41 42 46 49 50 50 52 55 56 56 56 57 56 54 52 52
11 11 12 13 14 13 13 13 13 13 14 13 13 13 13 14 15 15 16 17 18 20 20 20 22 23 22 21 22 23 24 25 26 28 27 28 29 27 26 26 27 28 29 29 30 30 32 34 35 36 41 42 41 41 41 40 40 39 38 39 41 42 45 46 47 45 42 41 41 43 44 43 42 44 49 53 54 56 58 58 57 55 54 53 51 49 48 48
13 12 12 13 13 13 13 12 12 12 13 13 13 13 14 15 15 15 16 17 17 19 20 20 22 23 22 23 23 25 25 25 26 27 27 27 27 26 25 26 27 29 30 30 31 32 33 35 37 38 41 43 44 45 47 45 41 37 39 43 44 45 48 49 48 43 40 41 43 44 44 45 47 52 56 57 58 58 59 57 53 51 49 48 47 46 46 46
14 13 13 13 13 13 12 12 12 12 12 13 13 13 14 15 15 15 17 18 18 19 20 20 22 23 24 25 26 27 28 28 28 28 27 26 26 26 26 27 27 28 29 30 32 33 33 35 38 38 40 44 46 46 48 47 41 36 39 43 46 47 50 51 49 45 41 41 42 42 43 47 53 57 57 56 55 54 52 49 47 46 46 45 44 45 46 46
Wind_Direction
205 205 205 207 210 212 213 214 215 216 218 221 226 230 235 239 242 247 251 256 262 270 278 282 280 276 272 272 277 282 287 286 290 302 302 295 294 291 292 291 289 288 284 281 280 278 279 277 277 284 283 278 276 275 274 273 272 273 271 269 271 268 268 268 266 272 279 283 284 283 278 277 287 290 288 292 290 286 289 288 288 288 283 281 286 289 291 288
205 206 208 209 210 212 214 214 215 217 220 223 227 232 238 241 243 246 248 253 259 266 275 283 284 275 268 264 268 277 282 286 293 298 300 300 299 297 297 297 294 292 288 284 282 280 277 275 277 282 281 278 278 277 273 271 271 269 267 270 271 267 270 271 271 275 280 283 286 286 282 279 284 290 292 292 292 291 291 291 290 288 284 283 285 286 285 282
206 207 209 209 210 210 211 212 215 218 222 226 230 235 239 242 245 247 248 253 253 256 267 278 283 275 264 256 263 273 276 285 296 298 303 308 307 304 303 301 298 296 292 283 279 278 273 274 277 279 282 279 277 278 275 274 273 270 268 273 274 271 277 278 276 277 281 286 290 289 286 283 284 289 294 294 294 294 291 291 289 284 282 282 283 284 282 280
206 207 207 206 206 205 207 210 214 219 223 227 231 234 238 243 247 250 253 255 253 253 260 266 275 278 270 264 270 276 281 294 299 300 308 314 314 311 307 302 300 297 292 283 278 278 276 277 278 278 282 278 279 281 276 275 275 273 271 272 276 277 284 282 278 282 285 288 289 291 293 290 288 289 292 295 297 296 291 285 282 280 282 284 284 283 281 280
206 205 205 204 203 204 206 211 214 218 221 224 227 230 236 243 249 254 258 257 253 253 256 260 269 279 281 281 281 282 291 299 298 304 311 316 318 315 310 303 300 299 296 291 285 286 286 285 283 283 284 279 284 286 277 279 279 279 278 275 279 282 287 286 283 287 288 289 290 292 294 293 294 293 290 290 293 292 290 287 283 283 286 287 286 283 282 281
206 205 204 204 205 207 210 215 218 218 219 220 223 229 236 244 251 256 257 253 250 250 255 262 272 283 292 297 298 298 295 287 298 311 314 319 321 319 315 306 302 302 302 300 294 295 294 294 294 288 286 284 286 282 279 288 287 284 287 287 285 284 288 291 290 290 291 292 292 293 295 296 300 298 292 287 284 285 288 290 287 287 287 288 288 286 283 281
205 205 205 206 208 210 214 216 217 216 216 218 225 232 240 249 255 258 254 248 245 246 253 263 276 288 299 307 311 317 304 278 300 316 318 324 326 324 321 312 309 308 309 310 303 299 297 305 305 290 290 292 286 282 285 293 291 284 288 294 293 291 290 293 294 293 293 292 291 296 298 299 298 298 300 293 285 284 288 290 289 288 288 288 288 286 284 282
201 202 203 205 207 210 213 213 212 212 213 218 227 234 244 251 256 258 248 237 235 239 251 267 285 296 301 302 296 313 318 293 305 317 322 330 331 333 331 321 319 317 320 317 307 301 300 310 311 300 297 293 287 289 297 301 297 288 290 298 301 299 297 297 297 295 294 293 295 298 298 296 295 297 301 295 290 290 291 291 291 289 288 287 286 285 284 283
193 196 199 201 204 207 209 208 207 207 210 217 224 232 243 249 251 249 230 219 222 232 252 273 297 307 302 282 154 54 321 303 318 322 329 338 340 350 355 341 333 331 330 324 325 321 309 307 309 308 299 294 294 298 306 307 300 295 295 301 303 301 302 302 298 296 297 298 300 300 298 298 297 300 299 293 293 297 297 294 294 292 290 288 286 284 283 283
181 184 187 190 193 195 197 197 197 198 202 208 215 227 239 242 229 213 194 189 186 176 155 120 108 78 74 100 104 92 25 8 354 334 340 350 357 7 11 2 352 350 341 334 342 338 323 306 303 308 302 302 306 305 308 305 300 301 301 301 301 303 305 302 298 299 302 301 301 299 298 299 299 302 299 295 298 302 300 298 296 294 291 290 287 285 283 282
166 167 169 170 170 172 174 174 173 174 175 176 179 184 183 167 152 145 142 141 134 124 115 109 107 95 90 97 103 101 74 60 21 355 355 1 12 13 15 10 2 2 354 346 344 338 331 309 304 315 312 311 313 312 309 305 305 304 306 306 304 309 309 307 305 303 303 303 301 299 299 301 302 301 295 294 299 302 301 299 297 295 292 291 289 286 286 284
146 147 147 146 145 147 148 147 146 142 138 131 123 119 117 119 124 124 123 122 121 117 109 103 99 102 103 96 96 95 70 57 28 13 12 12 16 12 17 14 6 8 2 359 350 343 344 328 332 335 321 318 316 317 312 309 310 305 312 314 309 316 314 310 312 307 304 304 305 305 306 307 304 296 293 296 301 302 300 298 297 296 293 292 290 288 286 285
130 130 129 128 129 131 131 129 125 120 116 113 112 109 107 108 112 117 119 119 119 114 107 105 99 97 102 98 89 80 64 52 38 31 27 22 20 15 17 13 13 16 12 13 2 358 359 345 354 347 332 332 318 315 315 313 314 309 315 317 313 319 313 310 315 312 309 307 310 311 307 310 307 295 295 300 303 303 302 299 298 297 295 293 292 290 288 285
122 122 121 120 122 123 121 118 114 111 108 108 109 107 105 105 107 113 117 117 116 111 106 103 97 92 96 98 88 71 62 55 46 39 33 28 24 19 17 16 20 21 18 20 9 4 0 350 358 350 338 339 321 317 321 320 323 318 318 318 317 318 311 311 314 310 311 310 315 314 303 307 310 302 300 301 303 304 303 300 299 298 297 296 294 292 290 288
118 118 117 117 119 118 115 112 110 108 107 107 108 108 106 106 109 112 114 114 110 106 104 98 93 95 94 91 84 67 60 57 49 40 33 29 26 19 15 13 15 17 13 10 3 357 353 351 355 345 333 336 332 329 324 320 324 325 323 319 318 317 312 314 314 308 308 310 316 313 303 306 309 305 304 304 304 303 301 300 299 298 298 298 296 294 292 290
116 115 115 116 117 116 113 110 109 107 105 104 107 109 108 107 108 111 113 111 105 99 98 95 92 97 94 86 77 65 62 57 45 38 32 27 24 15 9 5 2 4 360 353 352 350 350 351 348 342 338 337 334 330 326 322 323 325 325 319 316 318 317 317 316 312 311 310 314 312 306 308 309 306 308 308 307 304 301 299 299 299 300 300 299 297 295 293
115 115 115 116 116 114 112 109 108 106 102 101 104 107 107 105 104 108 110 106 101 95 93 94 95 95 89 82 75 63 58 48 36 31 25 21 19 12 7 1 354 351 350 351 351 349 350 347 338 335 338 334 326 326 329 326 321 322 325 321 316 316 317 317 315 316 318 314 313 313 309 306 306 307 308 310 312 309 305 302 300 301 303 304 304 301 298 297
114 114 114 115 115 113 111 109 109 107 102 101 103 104 105 102 101 102 104 103 100 95 91 87 89 94 83 69 66 53 42 34 26 23 17 16 20 13 4 357 351 346 347 350 346 346 346 341 337 334 333 331 328 333 333 324 318 317 320 320 318 317 317 316 313 317 323 319 314 315 312 308 307 309 309 311 316 314 309 307 304 305 306 307 308 306 303 301
113 113 113 114 113 112 109 106 106 104 101 102 104 104 102 99 96 93 92 93 95 95 93 84 82 92 83 59 50 38 33 29 24 19 11 10 9 5 2 358 356 354 349 342 337 341 342 339 341 338 333 330 329 332 330 320 315 315 317 317 317 318 317 315 312 315 321 319 316 315 313 311 309 309 309 312 316 316 313 312 310 309 309 310 311 311 310 309
111 111 111 111 109 108 105 103 102 101 100 100 102 101 99 96 93 90 87 88 91 92 92 85 80 81 75 57 42 31 31 30 25 17 8 3 360 357 359 358 357 357 348 334 331 336 342 345 344 336 329 327 325 325 323 320 319 318 319 318 317 318 317 317 315 317 322 320 315 315 315 313 310 307 308 312 315 316 316 315 314 314 314 314 316 316 315 314
110 109 109 108 106 105 104 101 98 97 99 99 98 96 96 97 95 94 91 88 86 84 82 78 74 71 65 54 37 30 30 26 21 15 8 2 0 357 353 353 356 352 341 330 329 333 341 347 341 330 323 325 326 326 325 324 323 321 320 320 321 320 317 319 319 319 324 320 315 318 320 315 312 310 309 313 315 315 316 314 314 318 319 319 320 320 318 316
109 108 108 107 107 106 102 98 95 96 97 96 94 93 94 95 94 96 93 87 81 75 70 63 59 55 51 44 32 29 27 20 14 10 7 3 2 358 349 351 353 345 337 335 337 337 341 344 335 327 328 331 332 333 332 329 326 325 324 324 324 322 319 319 321 323 324 319 314 319 321 315 312 312 310 313 316 315 318 318 316 320 322 321 322 321 320 318
108 108 108 107 108 105 100 97 97 96 94 92 91 90 90 88 87 91 88 85 78 67 60 53 47 39 33 32 24 26 28 21 9 3 3 1 358 356 353 349 345 341 340 340 344 344 343 339 333 332 335 333 332 335 336 334 331 328 327 327 325 325 324 320 321 326 323 318 314 315 318 315 316 317 314 314 317 317 319 320 319 320 321 321 321 320 320 320
107 106 106 107 107 102 98 99 98 96 92 90 88 87 86 81 82 87 84 80 73 60 54 50 43 35 29 21 15 19 24 17 6 359 359 360 355 354 355 350 346 347 343 339 346 350 341 332 334 338 338 334 330 332 336 336 334 329 326 327 325 324 324 318 318 323 323 321 319 319 319 317 319 321 316 316 320 319 320 321 321 321 320 320 321 320 320 320
106 106 106 107 105 100 98 99 99 98 92 88 87 84 81 76 76 81 79 72 61 46 43 41 35 30 24 15 9 9 14 12 7 359 358 1 358 355 355 353 353 349 342 341 347 347 339 333 335 338 337 338 336 334 335 335 333 330 326 325 324 322 321 318 317 322 326 324 322 324 322 316 320 321 314 316 322 319 319 321 320 320 320 321 322 322 321 320
106 106 106 106 104 100 98 99 101 100 92 86 84 79 75 69 68 72 71 63 52 37 31 30 27 21 15 12 8 7 13 7 3 2 2 1 358 357 356 351 353 349 343 344 346 342 338 338 338 338 338 340 339 335 332 333 334 330 327 325 324 324 323 322 321 324 326 322 320 325 322 315 320 323 315 317 321 317 318 320 318 318 319 320 321 321 321 320
107 107 107 107 104 99 96 98 102 100 91 82 73 63 59 54 54 58 58 50 39 29 24 21 19 15 11 10 10 16 13 357 359 4 3 1 356 360 0 352 352 351 346 348 347 341 339 339 340 340 342 341 339 335 331 333 334 328 327 328 326 325 325 324 324 324 324 323 323 326 326 319 319 321 319 320 322 318 319 319 318 317 316 317 319 319 319 317
108 108 108 107 103 98 95 99 103 98 85 70 52 41 39 42 46 51 56 47 24 20 21 14 13 14 13 14 16 20 10 357 1 1 0 3 359 360 3 357 354 350 349 355 349 340 339 340 338 339 343 342 338 333 330 334 333 326 327 330 328 326 326 326 325 324 326 328 325 323 328 324 318 320 323 324 324 320 319 319 317 315 313 314 317 318 317 315
107 107 105 104 100 92 90 96 98 91 75 57 42 36 37 44 52 50 52 45 21 17 17 12 13 11 9 13 14 13 8 5 6 358 360 7 3 360 0 357 357 351 350 357 350 340 340 339 338 341 345 342 337 333 333 336 332 330 331 331 332 333 331 330 327 327 329 329 322 320 328 328 320 322 326 326 325 321 318 319 316 313 311 312 314 315 314 313
104 104 101 98 92 82 82 85 83 79 63 44 35 33 37 42 50 47 40 35 24 16 12 13 14 8 7 10 7 7 8 6 3 1 3 7 4 3 0 356 0 359 353 355 352 344 341 341 342 345 345 342 340 338 338 338 333 335 338 334 334 335 334 332 328 330 331 326 321 320 327 329 323 324 326 324 325 325 321 320 317 314 312 313 314 314 314 312
99 98 96 92 84 76 77 74 69 67 53 40 36 36 43 43 48 53 39 26 22 15 14 14 10 10 12 13 7 4 5 2 1 5 4 2 3 2 360 355 355 358 355 355 353 348 345 346 345 344 344 344 344 342 341 340 337 339 339 336 335 334 333 332 329 332 330 323 322 322 324 327 321 321 326 324 325 326 321 317 315 313 314 316 317 318 318 314
95 93 90 85 79 70 67 64 56 53 46 41 41 42 52 49 44 44 26 14 19 15 17 13 8 11 11 10 7 2 1 0 1 5 2 0 1 0 1 359 354 354 354 353 354 352 349 346 345 345 345 346 346 343 342 342 342 341 339 340 339 336 335 333 329 330 324 317 321 325 324 323 317 317 324 324 324 325 323 319 318 317 316 317 319 321 320 317
90 87 81 74 69 61 56 52 45 48 47 46 49 51 59 54 41 32 20 20 24 15 15 11 5 7 7 8 7 0 2 2 0 3 1 2 4 3 3 3 1 359 354 351 353 353 350 346 347 349 347 347 348 346 342 341 342 340 339 341 340 337 336 332 328 329 324 317 320 326 323 321 321 322 324 324 323 326 330 329 327 325 323 321 321 323 322 321
84 80 74 66 60 54 50 46 46 51 52 55 59 57 56 52 38 32 26 22 20 14 15 11 4 5 9 12 6 1 4 2 1 5 3 4 8 6 4 3 3 2 358 354 353 353 351 346 346 348 346 347 347 343 339 338 339 337 338 340 338 336 332 327 324 324 322 318 320 325 323 319 321 323 325 325 323 326 328 327 326 325 324 322 322 323 323 323
78 74 69 60 53 50 48 48 52 55 59 65 61 52 53 49 34 34 27 18 18 12 9 11 11 12 10 8 5 6 7 4 5 10 8 8 9 5 3 0 0 1 360 356 351 350 350 343 340 342 343 344 342 340 339 339 338 336 338 339 336 332 327 322 319 316 317 318 320 323 320 316 316 319 325 325 321 322 321 320 322 321 320 320 320 321 321 321
75 69 63 56 52 48 47 51 57 60 66 68 54 45 50 47 38 38 29 23 24 15 8 11 15 14 9 6 8 9 10 8 9 11 9 8 7 4 2 358 358 359 359 355 349 348 347 340 339 342 342 342 341 340 339 338 337 337 338 335 331 330 327 322 318 319 321 318 317 320 318 317 317 318 324 324 319 318 317 318 320 319 318 318 318 319 319 319
72 67 61 55 49 46 49 58 63 66 65 56 48 47 47 42 41 38 28 26 24 20 20 18 15 15 12 11 11 9 10 11 10 10 8 5 4 3 360 355 356 357 355 351 347 344 341 337 339 342 340 340 341 339 338 336 336 336 335 332 330 332 331 325 322 324 323 316 315 318 318 321 322 319 322 323 320 318 317 317 319 318 318 318 317 317 317 317
72 69 61 52 46 45 52 59 62 64 58 46 46 52 47 40 39 34 28 28 24 23 27 24 21 21 20 17 13 9 11 11 9 8 7 3 0 1 360 354 352 355 353 349 346 343 340 336 337 341 339 339 341 341 339 337 336 335 333 333 333 330 327 326 324 322 320 315 315 316 316 320 322 320 322 323 322 320 318 317 318 318 319 318 316 316 315 316
69 66 59 49 46 47 52 60 61 55 48 41 45 49 44 40 36 31 30 28 27 29 30 27 25 24 22 20 15 10 11 10 7 6 6 3 358 357 359 354 348 350 349 347 344 341 341 336 334 339 340 339 341 342 338 336 336 336 335 335 334 327 323 322 321 320 317 314 314 315 316 317 317 318 321 321 321 320 319 318 318 318 318 317 316 314 313 314
65 63 56 45 42 46 52 59 55 44 39 41 46 45 41 39 34 31 32 30 30 33 31 28 26 22 18 17 14 11 10 9 6 4 2 1 356 354 356 353 347 346 346 346 345 342 341 336 330 335 340 341 342 339 335 333 333 335 335 334 332 328 325 322 319 319 317 314 314 314 313 313 313 315 318 318 319 318 318 317 316 316 317 316 315 313 312 312
61 59 51 37 34 39 47 48 41 35 37 41 43 43 41 40 38 36 36 35 34 33 31 31 28 23 18 15 12 9 7 5 3 2 359 357 356 353 352 351 348 346 345 346 345 342 341 336 330 333 338 340 337 333 333 333 332 333 331 331 330 328 327 323 319 319 317 313 312 310 308 310 310 311 315 317 316 316 317 316 314 315 316 316 314 312 311 311
58 54 43 33 35 44 50 42 32 33 40 40 41 43 44 44 44 41 38 36 35 30 29 30 26 21 18 14 10 7 4 2 360 360 357 354 353 350 349 350 349 346 345 343 341 341 341 338 333 331 332 333 330 330 334 335 332 332 330 329 330 329 328 323 317 318 316 312 310 308 306 306 306 309 313 315 315 314 315 315 314 314 315 315 314 312 311 310
54 49 38 30 34 47 50 40 29 32 38 41 44 46 47 48 46 41 36 33 31 27 26 23 19 17 15 10 8 5 2 360 358 357 355 352 349 346 347 349 347 346 344 342 340 340 341 341 335 330 330 332 329 331 336 337 334 332 330 329 329 327 325 319 315 317 314 311 311 309 306 306 306 310 312 312 312 312 312 314 313 312 312 314 315 313 311 310
53 48 39 31 33 44 45 38 34 35 39 45 48 48 48 48 45 39 34 31 27 26 24 19 15 13 9 7 6 1 359 359 357 355 354 351 348 347 347 347 345 344 343 341 340 340 339 339 337 334 334 335 335 335 337 336 334 332 329 329 328 326 325 322 321 319 313 311 312 307 305 308 309 311 312 312 311 310 311 311 311 311 313 314 315 314 312 310
47 44 38 35 40 45 42 39 42 44 47 51 50 46 45 45 42 37 34 30 25 23 21 14 11 9 6 4 3 359 358 357 353 353 353 349 346 347 347 345 344 343 342 340 340 340 339 338 337 336 335 335 335 334 333 332 331 330 328 328 328 327 325 322 322 319 313 314 314 308 307 310 312 314 316 315 314 313 312 312 311 312 314 314 314 313 312 310
39 37 35 36 40 43 41 40 45 50 53 55 51 45 43 42 36 32 31 27 21 19 17 11 7 6 4 3 1 356 355 354 351 350 349 346 344 346 345 344 343 343 343 341 340 340 340 337 335 333 330 330 328 327 328 330 328 326 326 327 329 328 325 323 322 319 316 316 314 311 314 315 316 319 319 318 318 316 314 314 314 314 314 314 313 312 311 311
37 34 33 34 34 36 38 40 45 50 51 52 50 44 39 34 28 26 25 21 17 14 12 9 7 5 360 359 359 353 350 351 350 348 346 344 343 342 343 345 345 344 344 342 340 341 340 336 334 331 327 327 326 325 328 331 327 326 327 328 330 330 330 330 328 324 322 318 313 316 318 317 317 321 321 320 319 317 315 316 316 315 315 314 312 311 310 310
36 36 35 37 36 38 42 45 50 52 47 46 48 41 35 31 26 22 16 12 12 10 7 4 3 1 356 354 355 351 348 349 348 345 345 344 343 343 343 346 347 346 345 343 340 341 339 335 335 333 329 329 328 326 328 329 329 330 331 330 332 333 335 335 331 327 326 320 316 319 320 318 319 321 321 320 318 315 315 316 316 315 314 313 312 311 310 310
40 43 39 42 46 50 52 51 54 52 43 39 40 35 31 28 22 16 9 8 6 4 4 1 355 353 352 351 351 350 348 347 345 343 344 344 343 344 343 344 346 346 345 343 340 340 339 335 335 334 331 331 331 329 329 330 330 332 333 333 334 335 335 334 330 327 326 320 317 319 319 317 319 319 319 319 316 314 314 314 314 314 314 314 313 312 312 312
46 50 50 51 50 50 51 49 49 47 37 32 32 27 23 21 15 9 7 7 2 357 359 358 350 348 349 349 348 346 344 344 340 339 342 343 342 343 343 343 344 344 344 343 340 341 339 335 336 336 332 331 333 332 332 333 332 334 335 336 337 336 335 334 331 328 326 322 319 319 318 318 319 319 318 318 316 315 314 314 314 314 315 315 314 314 315 316
55 58 60 57 47 42 45 43 42 40 29 23 23 19 16 14 10 5 3 1 359 355 353 351 347 346 348 348 346 342 340 340 336 334 337 338 338 341 342 343 345 344 343 342 340 341 339 335 336 337 332 331 334 334 333 334 334 335 338 339 338 337 336 334 332 330 327 323 320 321 322 322 321 321 320 319 318 317 316 316 316 317 317 318 317 318 319 319
56 55 54 53 45 38 39 36 31 31 23 16 15 12 10 7 2 1 360 355 353 351 349 347 346 346 346 345 344 341 339 337 335 334 335 334 333 335 335 337 341 341 340 341 340 340 340 336 336 336 332 330 333 334 333 333 334 335 338 339 338 337 335 333 332 329 326 322 321 321 322 321 321 322 321 321 321 321 320 320 321 321 320 320 320 321 321 321